• In Hungary
  • List of Countries
  • For 7 days
  • Water Temperature
  • Satellite Maps
  • Weather Map
  • News
  • Weather Widgets
  • user-avatar
    Login

    Hourly Weather Medan

    Today, 17 July, Tuesday

    Time Temperature Precipitation Wind Pressure Humidity
    00:00 +27°C° 0 mm 1 mps 754 mmHg 84%
    01:00 +27°C° 0 mm 1 mps 754 mmHg 83%
    02:00 +26°C° 0 mm 1 mps 754 mmHg 82%
    03:00 +26°C° 0 mm 1 mps 753 mmHg 81%
    04:00 +26°C° 0 mm 1 mps 753 mmHg 79%
    05:00 +26°C° 0 mm 1 mps 753 mmHg 79%
    06:00 +26°C° 0 mm 1 mps 753 mmHg 78%
    07:00 +27°C° 0 mm 2 mps 754 mmHg 74%
    08:00 +30°C° 0 mm 1 mps 753 mmHg 66%
    09:00 +32°C° 0 mm 1 mps 753 mmHg 57%
    10:00 +35°C° 0 mm 1 mps 753 mmHg 48%
    11:00 +37°C° 0 mm 2 mps 753 mmHg 46%
    12:00 +38°C° 0 mm 2 mps 753 mmHg 43%
    13:00 +39°C° 0 mm 2 mps 753 mmHg 41%
    14:00 +37°C° 0.1 mm 2 mps 752 mmHg 49%
    15:00 +35°C° 0.1 mm 3 mps 752 mmHg 58%
    16:00 +33°C° 0.1 mm 3 mps 751 mmHg 66%
    17:00 +31°C° 0.4 mm 2 mps 752 mmHg 73%
    18:00 +30°C° 0.4 mm 1 mps 752 mmHg 80%
    19:00 +28°C° 0.4 mm 1 mps 752 mmHg 88%
    20:00 +28°C° 0.3 mm 1 mps 753 mmHg 88%
    21:00 +27°C° 0.3 mm 1 mps 753 mmHg 88%
    22:00 +27°C° 0.3 mm 1 mps 754 mmHg 89%
    23:00 +27°C° 0 mm 1 mps 754 mmHg 88%

    Tomorrow, 18 July, Wednesday

    Time Temperature Precipitation Wind Pressure Humidity
    00:00 +27°C° 0 mm 1 mps 754 mmHg 88%
    01:00 +26°C° 0 mm 1 mps 754 mmHg 87%
    02:00 +26°C° 0 mm 1 mps 753 mmHg 86%
    03:00 +26°C° 0 mm 2 mps 753 mmHg 85%
    04:00 +26°C° 0 mm 2 mps 753 mmHg 84%
    05:00 +26°C° 0 mm 2 mps 753 mmHg 83%
    06:00 +27°C° 0 mm 2 mps 753 mmHg 82%
    07:00 +27°C° 0 mm 2 mps 753 mmHg 81%
    08:00 +29°C° 0 mm 1 mps 754 mmHg 74%
    09:00 +30°C° 0 mm 1 mps 754 mmHg 66%
    10:00 +32°C° 0 mm 1 mps 754 mmHg 58%
    11:00 +35°C° 0 mm 2 mps 754 mmHg 54%
    12:00 +36°C° 0 mm 2 mps 754 mmHg 50%
    13:00 +38°C° 0 mm 2 mps 753 mmHg 45%
    14:00 +37°C° 0.1 mm 2 mps 753 mmHg 48%
    15:00 +37°C° 0.1 mm 2 mps 752 mmHg 51%
    16:00 +36°C° 0.1 mm 3 mps 752 mmHg 54%
    17:00 +34°C° 0.5 mm 2 mps 752 mmHg 63%
    18:00 +31°C° 0.5 mm 2 mps 752 mmHg 71%
    19:00 +29°C° 0.5 mm 2 mps 752 mmHg 80%
    20:00 +28°C° 0.6 mm 2 mps 753 mmHg 81%
    21:00 +28°C° 0.6 mm 1 mps 754 mmHg 83%
    22:00 +27°C° 0.6 mm 1 mps 755 mmHg 84%
    23:00 +27°C° 0 mm 1 mps 755 mmHg 83%

    Day after tomorrow, 19 July, Thursday

    Time Temperature Precipitation Wind Pressure Humidity
    00:00 +27°C° 0 mm 1 mps 755 mmHg 83%
    01:00 +27°C° 0 mm 2 mps 754 mmHg 82%
    02:00 +27°C° 0 mm 2 mps 754 mmHg 81%
    03:00 +27°C° 0 mm 2 mps 754 mmHg 81%
    04:00 +26°C° 0 mm 2 mps 753 mmHg 80%
    05:00 +27°C° 0 mm 2 mps 753 mmHg 80%
    06:00 +27°C° 0 mm 2 mps 753 mmHg 80%
    07:00 +27°C° 0 mm 2 mps 754 mmHg 79%
    08:00 +29°C° 0 mm 2 mps 754 mmHg 70%
    09:00 +31°C° 0 mm 2 mps 754 mmHg 61%
    10:00 +35°C° 0 mm 2 mps 755 mmHg 51%
    11:00 +36°C° 0 mm 2 mps 755 mmHg 48%
    12:00 +37°C° 0 mm 2 mps 754 mmHg 45%
    13:00 +38°C° 0 mm 3 mps 754 mmHg 42%
    14:00 +37°C° 0 mm 3 mps 754 mmHg 46%
    15:00 +36°C° 0 mm 3 mps 753 mmHg 49%
    16:00 +36°C° 0 mm 3 mps 753 mmHg 52%
    17:00 +34°C° 0.6 mm 2 mps 753 mmHg 61%
    18:00 +31°C° 0.6 mm 2 mps 753 mmHg 70%
    19:00 +29°C° 0.6 mm 1 mps 754 mmHg 79%
    20:00 +28°C° 0.1 mm 1 mps 755 mmHg 81%
    21:00 +28°C° 0.1 mm 1 mps 755 mmHg 82%
    22:00 +27°C° 0.1 mm 1 mps 756 mmHg 84%
    23:00 +27°C° 0 mm 1 mps 756 mmHg 82%

    20 July, Friday

    Time Temperature Precipitation Wind Pressure Humidity
    00:00 +27°C° 0 mm 2 mps 755 mmHg 81%
    01:00 +27°C° 0 mm 2 mps 755 mmHg 79%
    02:00 +27°C° 0 mm 2 mps 755 mmHg 78%
    03:00 +27°C° 0 mm 2 mps 754 mmHg 77%
    04:00 +27°C° 0 mm 2 mps 754 mmHg 76%
    05:00 +27°C° 0 mm 2 mps 754 mmHg 77%
    06:00 +27°C° 0 mm 2 mps 755 mmHg 77%
    07:00 +27°C° 0 mm 1 mps 755 mmHg 77%
    08:00 +29°C° 0 mm 2 mps 755 mmHg 68%
    09:00 +31°C° 0 mm 2 mps 756 mmHg 60%
    10:00 +35°C° 0 mm 2 mps 756 mmHg 52%
    11:00 +36°C° 0 mm 2 mps 756 mmHg 49%
    12:00 +37°C° 0 mm 2 mps 755 mmHg 46%
    13:00 +38°C° 0 mm 2 mps 755 mmHg 43%
    14:00 +37°C° 0 mm 2 mps 755 mmHg 46%
    15:00 +36°C° 0 mm 3 mps 754 mmHg 50%
    16:00 +35°C° 0 mm 3 mps 753 mmHg 54%
    17:00 +32°C° 0.5 mm 2 mps 754 mmHg 63%
    18:00 +30°C° 0.5 mm 1 mps 754 mmHg 73%
    19:00 +28°C° 0.5 mm 1 mps 754 mmHg 83%
    20:00 +28°C° 0.1 mm 1 mps 755 mmHg 83%
    21:00 +27°C° 0.1 mm 1 mps 756 mmHg 84%
    22:00 +27°C° 0.1 mm 1 mps 756 mmHg 84%
    23:00 +27°C° 0 mm 1 mps 756 mmHg 82%

    21 July, Saturday

    Time Temperature Precipitation Wind Pressure Humidity
    00:00 +27°C° 0 mm 1 mps 756 mmHg 81%
    01:00 +27°C° 0 mm 1 mps 756 mmHg 79%
    02:00 +26°C° 0.2 mm 1 mps 755 mmHg 77%
    03:00 +26°C° 0.2 mm 1 mps 755 mmHg 76%
    04:00 +26°C° 0.2 mm 1 mps 755 mmHg 74%
    05:00 +26°C° 0 mm 1 mps 755 mmHg 74%
    06:00 +26°C° 0 mm 1 mps 755 mmHg 74%
    07:00 +26°C° 0 mm 1 mps 756 mmHg 73%
    08:00 +29°C° 0 mm 1 mps 756 mmHg 66%
    09:00 +31°C° 0 mm 1 mps 756 mmHg 58%
    10:00 +33°C° 0 mm 1 mps 756 mmHg 51%
    11:00 +35°C° 0 mm 1 mps 756 mmHg 47%
    12:00 +36°C° 0 mm 1 mps 755 mmHg 43%
    13:00 +39°C° 0 mm 2 mps 755 mmHg 39%
    14:00 +38°C° 0 mm 2 mps 754 mmHg 43%
    15:00 +37°C° 0 mm 3 mps 754 mmHg 46%
    16:00 +36°C° 0 mm 3 mps 753 mmHg 50%
    17:00 +34°C° 0.7 mm 3 mps 754 mmHg 62%
    18:00 +30°C° 0.7 mm 2 mps 754 mmHg 74%
    19:00 +28°C° 0.7 mm 2 mps 755 mmHg 87%
    20:00 +27°C° 0.2 mm 2 mps 755 mmHg 87%
    21:00 +27°C° 0.2 mm 1 mps 756 mmHg 88%
    22:00 +27°C° 0.2 mm 1 mps 757 mmHg 88%
    23:00 +27°C° 0.1 mm 1 mps 756 mmHg 86%

    22 July, Sunday

    Time Temperature Precipitation Wind Pressure Humidity
    00:00 +26°C° 0.1 mm 1 mps 756 mmHg 84%
    01:00 +26°C° 0.1 mm 1 mps 756 mmHg 82%
    02:00 +26°C° 0 mm 1 mps 755 mmHg 81%
    03:00 +26°C° 0 mm 1 mps 755 mmHg 79%
    04:00 +26°C° 0 mm 1 mps 755 mmHg 78%
    05:00 +26°C° 0 mm 1 mps 755 mmHg 78%
    06:00 +26°C° 0 mm 1 mps 755 mmHg 78%
    07:00 +26°C° 0 mm 1 mps 756 mmHg 77%
    08:00 +29°C° 0 mm 1 mps 756 mmHg 67%
    09:00 +32°C° 0 mm 1 mps 756 mmHg 57%
    10:00 +34°C° 0 mm 1 mps 756 mmHg 47%
    11:00 +36°C° 0 mm 1 mps 756 mmHg 45%
    12:00 +38°C° 0 mm 2 mps 755 mmHg 42%
    13:00 +39°C° 0 mm 2 mps 755 mmHg 39%
    14:00 +38°C° 0 mm 2 mps 754 mmHg 42%
    15:00 +37°C° 0 mm 3 mps 753 mmHg 45%
    16:00 +37°C° 0 mm 3 mps 753 mmHg 48%
    17:00 +34°C° 0.3 mm 2 mps 753 mmHg 59%
    18:00 +31°C° 0.3 mm 2 mps 754 mmHg 70%
    19:00 +28°C° 0.3 mm 1 mps 754 mmHg 81%
    20:00 +28°C° 0.2 mm 1 mps 755 mmHg 82%
    21:00 +27°C° 0.2 mm 1 mps 755 mmHg 83%
    22:00 +27°C° 0.2 mm 1 mps 756 mmHg 84%
    23:00 +27°C° 0 mm 1 mps 755 mmHg 82%
    Show more